Tracking 19249 objects as of 15-Oct-2018
HD Live streaming from Space Station
objects crossing your sky now

FOX-1D (AO-92)

Track FOX-1D (AO-92) now!
10-day predictions
FOX-1D (AO-92) is classified as:


NORAD ID: 43137
Int'l Code: 2018-004A
Perigee: 496.7 km
Apogee: 511.4 km
Inclination: 97.5 °
Period: 94.6 minutes
Semi major axis: 6875 km
RCS: Unknown
Launch date: January 12, 2018
Source: United States (US)
Launch site: SRIHARIKOTA (SRI)

Uplink (MHz): 435.350/1267.350
Downlink (MHz): 145.880
Beacon (MHz): 145.880
Mode: FM CTCSS 67.0Hz/200bps DUV
Call sign:
Status: Active

aabbcc
Your satellite tracking list
Your tracking list is empty




NASA's NSSDC Master Catalog

Two Line Element Set (TLE):
1 43137U 18004AC  18287.29463279 +.00001535 +00000-0 +68389-4 0  9991
2 43137 097.5210 350.2550 0010648 050.5978 309.6200 15.22956194041848
Source of the keplerian elements: AMSAT